Location: Innerarity Island Observatory
(30.3139°N, 87.4867°W)
Time: 17:21:18
(UTC-05:00)

OPAL - Visible Passes

Search period start: 03 July 2015 00:00
Search period end: 13 July 2015 00:00
Orbit: 744 x 796 km, 100.2° (Epoch: 02 July)

Date Brightness Start Highest point End Pass type
(mag) Time Alt. Az. Time Alt. Az. Time Alt. Az.
03 Jul 7.4 21:16:36 10° NNE 21:21:33 65° ESE 21:26:12 11° S visible
03 Jul 10.4 22:58:30 10° NW 22:59:58 11° WNW 23:01:07 10° WNW visible
04 Jul 8.4 20:41:59 10° NE 20:46:02 26° E 20:50:11 10° SSE visible
04 Jul 9.4 22:20:45 10° NNW 22:24:53 26° WNW 22:28:55 10° SW visible
05 Jul 7.8 21:44:46 10° N 21:49:41 64° WNW 21:54:30 10° SSW visible
06 Jul 7.6 21:09:31 10° NNE 21:14:20 51° ESE 21:18:31 13° S visible
06 Jul 10.2 22:50:13 10° NNW 22:52:52 14° WNW 22:55:15 10° W visible
07 Jul 8.7 20:35:12 10° NE 20:38:46 20° E 20:42:29 10° SE visible
07 Jul 9.0 22:13:18 10° N 22:17:45 33° WNW 22:22:06 10° SW visible
08 Jul 7.4 21:37:32 10° NNE 21:42:30 82° WNW 21:46:49 14° SSW visible
09 Jul 7.9 21:02:29 10° NNE 21:07:07 39° E 21:10:49 15° SSE visible
09 Jul 10.0 22:42:24 10° NNW 22:45:44 18° WNW 22:48:53 10° WSW visible
10 Jul 9.0 20:28:36 10° ENE 20:31:28 16° E 20:34:35 10° SE visible
10 Jul 8.6 22:05:56 10° N 22:10:36 41° WNW 22:15:06 10° SW visible
11 Jul 7.3 21:30:21 10° NNE 21:35:19 79° ESE 21:39:06 17° S visible
12 Jul 8.2 20:55:31 10° NE 20:59:51 31° E 21:03:06 16° SSE visible
12 Jul 9.6 22:34:47 10° NNW 22:38:37 22° WNW 22:42:18 10° WSW visible
